When you browse on this site, cookies collect data to enhance your experience and personalize the content and advertising you see.
Visit our Privacy Policy to learn more. By continuing to use the site, you agree to this use of cookies and data.
  • In Österreich
  • Länderverzeichnis
  • Für 7 Tage
  • Wassertemperatur
  • Satellitenkarten
  • Wetterkarte
  • News
  • Widgets
  • user-avatar
    Anmelden

    Stündliche Wetter Sztok

    Heute, 21 Mai, Dienstag

    Zeit Temperatur Niederschläge Wind Luftdruck Luftfeuchtigkeit
    00:00 +14°C° 0 mm 3 m/S 741 mmHg 92%
    01:00 +14°C° 0 mm 3 m/S 741 mmHg 93%
    02:00 +14°C° 0 mm 2 m/S 741 mmHg 93%
    03:00 +14°C° 0 mm 2 m/S 741 mmHg 93%
    04:00 +13°C° 0 mm 2 m/S 742 mmHg 93%
    05:00 +15°C° 0 mm 2 m/S 742 mmHg 91%
    06:00 +16°C° 0 mm 2 m/S 742 mmHg 88%
    07:00 +18°C° 0 mm 2 m/S 742 mmHg 85%
    08:00 +19°C° 0 mm 3 m/S 742 mmHg 82%
    09:00 +20°C° 0 mm 3 m/S 742 mmHg 80%
    10:00 +21°C° 0 mm 4 m/S 742 mmHg 78%
    11:00 +21°C° 1.1 mm 4 m/S 741 mmHg 78%
    12:00 +22°C° 1.1 mm 5 m/S 741 mmHg 78%
    13:00 +22°C° 1.1 mm 6 m/S 741 mmHg 78%
    14:00 +22°C° 0.9 mm 6 m/S 740 mmHg 78%
    15:00 +22°C° 0.9 mm 6 m/S 740 mmHg 79%
    16:00 +21°C° 0.9 mm 5 m/S 740 mmHg 79%
    17:00 +20°C° 0 mm 5 m/S 740 mmHg 82%
    18:00 +19°C° 0 mm 5 m/S 740 mmHg 85%
    19:00 +18°C° 0 mm 4 m/S 739 mmHg 88%
    20:00 +17°C° 0 mm 4 m/S 740 mmHg 89%
    21:00 +15°C° 0 mm 4 m/S 740 mmHg 90%
    22:00 +13°C° 0 mm 4 m/S 740 mmHg 91%
    23:00 +13°C° 0 mm 4 m/S 740 mmHg 92%

    Morgen, 22 Mai, Mittwoch

    Zeit Temperatur Niederschläge Wind Luftdruck Luftfeuchtigkeit
    00:00 +12°C° 0 mm 4 m/S 740 mmHg 92%
    01:00 +10°C° 0 mm 5 m/S 740 mmHg 92%
    02:00 +10°C° 0 mm 5 m/S 740 mmHg 93%
    03:00 +10°C° 0 mm 5 m/S 740 mmHg 94%
    04:00 +10°C° 0 mm 5 m/S 740 mmHg 94%
    05:00 +12°C° 0 mm 5 m/S 740 mmHg 92%
    06:00 +13°C° 0 mm 5 m/S 741 mmHg 90%
    07:00 +14°C° 0 mm 5 m/S 741 mmHg 88%
    08:00 +15°C° 0 mm 5 m/S 741 mmHg 86%
    09:00 +16°C° 0 mm 5 m/S 741 mmHg 84%
    10:00 +17°C° 0 mm 5 m/S 742 mmHg 82%
    11:00 +18°C° 0.2 mm 4 m/S 741 mmHg 78%
    12:00 +19°C° 0.2 mm 4 m/S 741 mmHg 75%
    13:00 +20°C° 0.2 mm 4 m/S 741 mmHg 71%
    14:00 +20°C° 0.5 mm 4 m/S 741 mmHg 72%
    15:00 +20°C° 0.5 mm 3 m/S 741 mmHg 73%
    16:00 +20°C° 0.5 mm 3 m/S 741 mmHg 74%
    17:00 +19°C° 0.2 mm 3 m/S 741 mmHg 78%
    18:00 +18°C° 0.2 mm 3 m/S 742 mmHg 82%
    19:00 +18°C° 0.2 mm 2 m/S 742 mmHg 86%
    20:00 +17°C° 0.2 mm 2 m/S 742 mmHg 88%
    21:00 +16°C° 0.2 mm 2 m/S 742 mmHg 90%
    22:00 +15°C° 0.2 mm 2 m/S 743 mmHg 92%
    23:00 +14°C° 0.1 mm 2 m/S 743 mmHg 93%

    übermorgen, 23 Mai, Donnerstag

    Zeit Temperatur Niederschläge Wind Luftdruck Luftfeuchtigkeit
    00:00 +14°C° 0.1 mm 2 m/S 743 mmHg 94%
    01:00 +14°C° 0.1 mm 2 m/S 743 mmHg 95%
    02:00 +12°C° 0.4 mm 3 m/S 744 mmHg 96%
    03:00 +12°C° 0.4 mm 3 m/S 744 mmHg 97%
    04:00 +12°C° 0.4 mm 4 m/S 744 mmHg 98%
    05:00 +13°C° 0.4 mm 4 m/S 744 mmHg 96%
    06:00 +13°C° 0.4 mm 5 m/S 745 mmHg 95%
    07:00 +14°C° 0.4 mm 5 m/S 745 mmHg 94%
    08:00 +14°C° 0.2 mm 5 m/S 745 mmHg 92%
    09:00 +15°C° 0.2 mm 5 m/S 746 mmHg 91%
    10:00 +15°C° 0.2 mm 5 m/S 746 mmHg 89%
    11:00 +15°C° 0.1 mm 5 m/S 746 mmHg 88%
    12:00 +15°C° 0.1 mm 6 m/S 746 mmHg 87%
    13:00 +15°C° 0.1 mm 6 m/S 746 mmHg 86%
    14:00 +15°C° 0 mm 6 m/S 747 mmHg 85%
    15:00 +15°C° 0 mm 6 m/S 747 mmHg 83%
    16:00 +15°C° 0 mm 6 m/S 747 mmHg 82%
    17:00 +14°C° 0 mm 6 m/S 747 mmHg 81%
    18:00 +13°C° 0 mm 5 m/S 747 mmHg 81%
    19:00 +12°C° 0 mm 4 m/S 747 mmHg 81%
    20:00 +11°C° 0 mm 4 m/S 748 mmHg 82%
    21:00 +10°C° 0 mm 3 m/S 748 mmHg 83%
    22:00 +9°C° 0 mm 3 m/S 748 mmHg 85%
    23:00 +8°C° 0 mm 3 m/S 748 mmHg 85%

    24 Mai, Freitag

    Zeit Temperatur Niederschläge Wind Luftdruck Luftfeuchtigkeit
    00:00 +8°C° 0 mm 3 m/S 748 mmHg 85%
    01:00 +7°C° 0 mm 3 m/S 748 mmHg 85%
    02:00 +7°C° 0 mm 3 m/S 748 mmHg 88%
    03:00 +5°C° 0 mm 3 m/S 748 mmHg 91%
    04:00 +5°C° 0 mm 3 m/S 748 mmHg 95%
    05:00 +7°C° 0 mm 4 m/S 748 mmHg 90%
    06:00 +10°C° 0 mm 4 m/S 748 mmHg 86%
    07:00 +12°C° 0 mm 4 m/S 748 mmHg 81%
    08:00 +13°C° 0 mm 4 m/S 748 mmHg 76%
    09:00 +15°C° 0 mm 4 m/S 748 mmHg 70%
    10:00 +17°C° 0 mm 4 m/S 748 mmHg 65%
    11:00 +18°C° 0 mm 4 m/S 747 mmHg 64%
    12:00 +18°C° 0 mm 4 m/S 747 mmHg 62%
    13:00 +19°C° 0 mm 4 m/S 747 mmHg 61%
    14:00 +19°C° 0.1 mm 4 m/S 746 mmHg 62%
    15:00 +19°C° 0.1 mm 3 m/S 746 mmHg 63%
    16:00 +19°C° 0.1 mm 3 m/S 746 mmHg 64%
    17:00 +18°C° 0.1 mm 3 m/S 746 mmHg 71%
    18:00 +16°C° 0.1 mm 2 m/S 745 mmHg 77%
    19:00 +15°C° 0.1 mm 2 m/S 745 mmHg 84%
    20:00 +14°C° 0 mm 2 m/S 745 mmHg 86%
    21:00 +13°C° 0 mm 2 m/S 745 mmHg 88%
    22:00 +12°C° 0 mm 2 m/S 745 mmHg 90%
    23:00 +12°C° 0 mm 2 m/S 745 mmHg 91%

    25 Mai, Samstag

    Zeit Temperatur Niederschläge Wind Luftdruck Luftfeuchtigkeit
    00:00 +12°C° 0 mm 2 m/S 745 mmHg 91%
    01:00 +12°C° 0 mm 2 m/S 745 mmHg 92%
    02:00 +12°C° 0 mm 2 m/S 744 mmHg 92%
    03:00 +10°C° 0 mm 3 m/S 744 mmHg 93%
    04:00 +10°C° 0 mm 3 m/S 744 mmHg 93%
    05:00 +11°C° 0 mm 3 m/S 744 mmHg 89%
    06:00 +13°C° 0 mm 4 m/S 744 mmHg 85%
    07:00 +14°C° 0 mm 4 m/S 744 mmHg 81%
    08:00 +15°C° 0.5 mm 4 m/S 744 mmHg 79%
    09:00 +17°C° 0.5 mm 4 m/S 744 mmHg 77%
    10:00 +18°C° 0.5 mm 4 m/S 743 mmHg 75%
    11:00 +19°C° 0.6 mm 4 m/S 743 mmHg 73%
    12:00 +19°C° 0.6 mm 5 m/S 743 mmHg 71%
    13:00 +20°C° 0.6 mm 6 m/S 743 mmHg 69%
    14:00 +19°C° 0.3 mm 5 m/S 743 mmHg 69%
    15:00 +19°C° 0.3 mm 5 m/S 743 mmHg 69%
    16:00 +19°C° 0.3 mm 5 m/S 743 mmHg 68%
    17:00 +18°C° 0 mm 4 m/S 743 mmHg 72%
    18:00 +17°C° 0 mm 4 m/S 743 mmHg 75%
    19:00 +16°C° 0 mm 3 m/S 743 mmHg 78%
    20:00 +13°C° 0 mm 3 m/S 744 mmHg 82%
    21:00 +13°C° 0 mm 2 m/S 744 mmHg 86%
    22:00 +10°C° 0 mm 2 m/S 744 mmHg 90%
    23:00 +10°C° 0 mm 2 m/S 745 mmHg 89%

    26 Mai, Sonntag

    Zeit Temperatur Niederschläge Wind Luftdruck Luftfeuchtigkeit
    00:00 +10°C° 0 mm 2 m/S 745 mmHg 88%
    01:00 +9°C° 0 mm 2 m/S 745 mmHg 87%
    02:00 +9°C° 0 mm 2 m/S 745 mmHg 89%
    03:00 +8°C° 0 mm 2 m/S 745 mmHg 91%
    04:00 +7°C° 0 mm 2 m/S 745 mmHg 93%
    05:00 +9°C° 0 mm 3 m/S 745 mmHg 88%
    06:00 +10°C° 0 mm 3 m/S 745 mmHg 84%
    07:00 +12°C° 0 mm 3 m/S 745 mmHg 79%
    08:00 +13°C° 0 mm 4 m/S 745 mmHg 76%
    09:00 +15°C° 0 mm 5 m/S 744 mmHg 73%
    10:00 +16°C° 0 mm 6 m/S 744 mmHg 70%
    11:00 +16°C° 0.5 mm 6 m/S 744 mmHg 73%
    12:00 +16°C° 0.5 mm 6 m/S 744 mmHg 75%
    13:00 +16°C° 0.5 mm 7 m/S 744 mmHg 77%
    14:00 +15°C° 0.3 mm 7 m/S 744 mmHg 75%
    15:00 +15°C° 0.3 mm 7 m/S 744 mmHg 72%
    16:00 +14°C° 0.3 mm 7 m/S 743 mmHg 70%
    17:00 +13°C° 0.1 mm 6 m/S 744 mmHg 75%
    18:00 +12°C° 0.1 mm 5 m/S 744 mmHg 79%
    19:00 +11°C° 0.1 mm 4 m/S 744 mmHg 84%
    20:00 +11°C° 0 mm 3 m/S 745 mmHg 87%
    21:00 +10°C° 0 mm 3 m/S 745 mmHg 89%
    22:00 +9°C° 0 mm 3 m/S 745 mmHg 92%
    23:00 +9°C° 0 mm 3 m/S 745 mmHg 93%
    Mehr zeigen